Location: Kirchberg
(47.4114°N, 9.0398°E)
Time: 11:07:58
(UTC+00:00)

USA 234 - Pass Details

Date: 03 March 2021
Orbit: 1102 x 1105 km, 123.0° (Epoch: 08 April)

Event Time Altitude Azimuth Distance (km) Brightness Sun altitude
Exits shadow 19:39:56 35° 55° (NE) 1,705 3.9 -25.5°
Maximum altitude 19:43:01 89° 141° (SE) 1,109 3.1 -26.0°
Drops below altitude 10° 19:49:34 10° 236° (SW) 2,957 5.9 -27.0°
Sets 19:52:02 0° 236° (SW) 3,913 6.6 -27.4°
